Theta_e
310 308 308 308 308 310 311 311 311 312 312 312 311 311 312 312 313 312 313 313 314 315 315 322 326 326 325 325 327 331 334 334 337 338 337 341 340 336 332 329 330 333 331 333
308 309 310 311 311 311 311 311 310 311 312 312 310 311 312 311 311 312 313 313 314 314 316 316 318 325 323 325 326 328 336 334 335 336 335 335 333 335 334 332 328 330 331 332
308 309 311 311 311 311 311 311 312 313 313 311 311 311 311 312 312 312 312 313 313 313 314 315 317 320 324 325 325 327 329 336 334 333 333 334 335 335 333 331 327 326 329 337
308 309 309 311 311 312 313 314 313 313 313 311 310 311 310 310 310 310 311 311 311 311 313 313 315 317 322 326 324 328 328 333 334 332 333 332 331 331 329 327 327 325 337 341
308 309 308 310 314 314 313 313 312 312 312 310 310 308 310 309 310 310 310 311 313 313 313 313 314 315 318 324 326 326 329 330 334 332 333 332 331 330 329 327 325 324 332 343
308 309 312 313 313 312 312 312 311 310 308 309 309 308 310 308 309 309 311 314 315 316 316 315 315 316 317 320 324 325 333 331 334 333 332 332 330 329 328 326 325 324 327 344
309 309 313 313 312 309 309 310 311 311 310 311 310 310 310 310 311 315 316 315 315 315 315 317 317 316 316 316 322 326 327 332 333 332 331 330 329 327 326 327 324 323 335 346
308 308 310 312 311 310 309 309 311 315 315 313 311 311 310 314 315 315 314 314 313 313 314 316 318 318 317 317 318 325 325 328 331 331 330 329 327 326 325 327 326 326 338 347
309 311 309 310 309 309 309 309 309 312 310 310 309 310 310 314 315 314 314 313 312 312 313 316 321 320 322 322 322 323 326 329 330 330 329 327 327 326 326 326 327 329 341 346
309 309 309 310 309 309 310 309 309 308 313 315 312 312 311 316 315 314 313 312 312 313 315 320 319 322 324 323 323 323 325 327 329 328 328 327 326 326 327 330 329 329 343 346
309 309 310 309 309 309 310 310 311 310 310 311 315 312 314 315 314 313 313 314 314 314 315 319 319 317 329 327 325 325 326 328 328 327 326 325 325 326 331 333 331 333 348 347
310 309 309 310 309 309 311 311 312 308 310 312 313 312 312 313 312 313 313 313 312 314 316 319 319 316 323 334 334 332 331 332 330 327 328 328 327 331 336 333 328 337 348 346
311 308 311 308 308 308 311 310 310 310 309 313 313 311 313 312 313 314 313 313 313 314 318 319 317 316 319 332 334 331 331 329 331 333 330 329 332 334 332 331 341 350 347 345
312 308 309 309 310 308 312 312 311 310 314 312 312 312 313 314 314 313 315 314 313 315 316 318 318 317 321 333 339 338 331 330 330 330 329 329 336 341 339 349 350 348 346 345
309 310 311 311 312 313 313 313 313 312 311 312 313 315 314 313 313 314 313 316 314 316 316 316 319 322 332 328 334 340 340 337 331 333 339 342 343 347 350 347 347 346 343 341
308 310 313 313 313 312 312 312 313 313 313 312 312 311 312 311 312 312 314 316 317 317 315 319 318 326 329 328 329 336 339 337 339 340 342 344 345 348 344 345 341 340 337 336
308 309 312 313 312 312 314 314 315 314 313 312 313 311 310 311 312 312 312 313 313 315 318 316 317 318 322 330 326 329 336 339 338 342 341 345 346 345 343 341 338 336 334 333
309 312 313 314 310 311 313 313 313 313 312 312 311 311 311 312 312 312 312 313 314 314 314 315 316 317 325 330 325 329 331 338 338 340 342 344 343 342 339 336 334 331 333 333
310 310 313 315 306 311 311 314 313 313 312 312 310 311 311 312 312 311 311 313 310 310 313 314 316 317 320 329 329 326 330 336 338 341 341 339 340 339 336 334 334 332 331 332
310 310 313 313 313 309 306 311 311 310 312 309 310 310 311 311 311 309 310 310 309 309 312 314 315 316 320 327 330 325 327 337 339 339 338 340 338 334 334 334 333 332 331 330
313 311 311 314 312 312 311 312 310 310 309 310 311 311 310 310 310 311 311 311 310 309 312 313 314 315 319 322 329 325 324 337 338 338 338 335 333 333 334 333 331 332 332 331
312 311 311 312 312 310 312 310 313 311 312 311 311 311 311 312 312 312 311 310 310 310 310 312 314 314 318 327 328 325 334 336 335 334 335 336 334 333 332 330 329 331 332 332
311 312 314 314 308 308 312 313 314 313 312 312 311 312 311 311 311 311 311 310 310 310 311 311 313 315 318 327 329 328 333 334 335 335 336 334 332 332 331 331 331 332 333 333
311 309 309 310 311 312 311 313 312 313 312 312 310 310 310 310 310 310 310 310 310 310 311 312 313 315 319 325 326 326 333 333 334 334 334 332 331 332 332 331 332 332 331 330
307 308 310 311 312 312 312 313 313 312 311 311 310 308 308 308 308 308 310 310 311 311 312 313 314 315 318 323 327 333 334 333 333 333 332 331 331 331 331 331 331 330 330 330
308 310 311 311 312 313 313 313 312 311 310 308 307 307 307 308 309 310 310 311 312 312 312 313 314 315 317 322 327 334 333 333 333 332 331 330 329 330 331 331 330 331 330 330
Wind_Speed
3 4 6 10 8 10 6 5 4 3 6 4 10 15 14 10 14 15 22 27 32 36 35 40 40 36 38 36 41 28 38 37 38 37 33 33 33 30 29 29 27 26 27 28
7 3 5 6 5 3 6 6 6 6 6 6 7 21 18 7 7 17 22 27 30 34 37 39 38 47 40 39 42 36 40 39 39 39 37 36 34 34 31 28 27 28 28 26
2 8 7 6 3 6 5 5 7 9 11 7 5 18 16 16 13 15 21 25 31 33 36 41 40 41 50 42 40 40 32 44 44 42 39 37 35 34 32 31 30 29 29 26
5 5 4 6 3 4 3 6 8 10 8 4 5 16 12 10 12 12 20 27 30 39 37 41 41 42 44 48 41 36 33 44 49 43 42 39 38 37 34 30 31 30 26 26
8 5 7 3 3 2 5 6 4 8 10 3 5 4 10 8 17 17 17 23 29 30 35 38 40 41 39 42 48 40 36 40 52 47 43 36 34 32 27 29 30 23 28 28
9 6 3 5 3 2 1 3 5 4 2 4 4 6 18 5 12 6 9 23 22 32 33 35 39 44 40 39 43 45 29 40 49 46 41 35 34 32 28 30 27 25 24 29
3 1 2 2 3 6 6 4 4 5 3 5 5 8 13 9 9 3 6 18 30 34 41 39 38 39 41 43 40 41 39 33 43 40 39 37 35 30 30 28 24 24 23 30
1 5 4 2 1 5 4 5 4 4 3 7 12 7 6 2 6 10 12 16 26 36 42 42 36 39 41 44 40 44 42 43 41 44 46 41 36 31 29 28 24 24 25 28
3 3 9 6 4 2 3 4 6 4 6 7 5 7 7 3 6 6 14 18 22 34 40 42 37 34 40 37 38 44 40 42 44 46 44 41 36 34 32 31 26 24 26 26
3 5 4 3 8 3 2 3 3 3 3 5 4 6 8 6 9 12 17 20 28 35 41 34 35 34 30 34 38 44 47 41 46 44 41 37 38 36 34 32 28 25 27 28
2 2 5 4 2 4 4 1 3 2 4 4 4 5 4 6 4 10 14 21 28 31 40 29 36 40 25 21 30 36 32 31 30 30 32 36 34 33 29 31 28 28 25 27
1 2 4 8 15 9 6 6 4 3 4 4 4 10 5 4 6 8 15 18 30 34 35 22 31 50 28 21 16 21 23 23 23 28 28 28 29 26 29 29 28 29 27 26
2 1 4 7 4 4 3 3 5 3 2 8 5 7 2 5 6 8 11 21 31 36 28 14 39 52 35 28 17 19 21 23 22 21 24 26 25 27 27 28 28 28 29 27
8 5 7 6 8 5 14 17 14 9 5 9 12 16 6 10 12 8 11 16 30 30 16 17 45 52 37 20 16 21 22 22 25 28 28 25 25 24 27 29 29 28 28 29
7 6 6 12 16 16 19 21 18 16 16 9 15 7 9 8 11 12 14 13 19 28 23 41 38 35 19 28 20 10 23 24 31 29 26 25 25 26 29 30 28 28 28 27
2 5 2 15 14 16 18 17 15 16 16 5 7 11 5 11 18 17 15 13 19 23 30 32 34 31 32 33 20 8 20 29 29 26 28 29 31 33 31 30 29 28 27 26
5 3 4 16 5 12 10 4 1 2 6 5 7 4 5 7 12 14 22 21 21 26 28 30 34 39 33 31 25 15 20 27 28 29 30 34 32 31 29 28 27 28 27 26
9 3 3 4 4 3 3 2 3 4 10 8 9 10 8 13 20 23 24 24 18 26 32 36 37 39 38 24 11 6 26 13 29 31 34 34 30 28 29 28 28 26 24 22
11 5 3 2 3 7 6 4 4 1 8 9 8 9 12 22 21 24 16 13 32 31 30 32 31 34 34 25 15 13 22 26 33 35 32 28 30 31 28 29 28 25 24 22
7 3 2 1 2 5 5 3 6 3 6 6 7 9 13 16 10 14 23 24 39 37 30 30 31 31 28 29 30 18 23 22 35 35 30 32 29 30 32 29 28 26 22 20
3 2 6 6 4 7 4 7 5 2 6 8 16 20 22 11 18 41 38 34 37 34 30 28 27 29 25 29 20 26 30 31 34 29 32 31 29 28 26 25 25 25 23 21
5 5 4 3 5 7 9 4 5 6 13 16 21 26 30 34 40 44 37 28 38 32 32 25 26 27 22 22 12 24 9 28 30 33 35 32 28 26 23 22 22 20 21 20
3 4 2 6 5 6 12 15 18 26 23 34 19 17 22 31 37 38 34 34 28 31 28 26 26 25 20 18 15 15 9 14 34 35 34 32 29 25 23 22 22 20 22 22
4 5 3 5 4 8 23 25 18 19 21 16 18 16 23 33 35 34 34 31 30 30 28 26 24 22 20 15 6 28 19 32 36 35 34 28 24 26 22 20 19 20 22 23
10 8 5 6 9 19 18 18 32 24 17 20 25 25 29 37 34 27 30 32 32 30 27 23 20 22 20 22 21 8 19 37 35 34 32 27 25 23 22 20 19 18 16 17
5 4 2 6 15 15 19 27 9 13 23 29 26 30 25 28 33 28 29 30 29 28 27 23 22 20 19 21 3 9 23 41 40 37 32 29 22 26 23 22 21 17 14 14
Wind_Direction
317 107 225 242 214 237 259 247 281 254 265 292 284 280 284 295 308 315 311 308 306 304 303 288 266 263 264 272 263 269 227 218 207 207 215 220 228 237 238 243 251 257 265 267
10 294 276 257 289 321 325 313 302 270 283 294 288 288 289 285 275 298 301 307 311 310 304 306 295 266 263 263 264 259 230 223 209 207 216 228 244 240 242 248 259 268 268 267
181 258 302 328 349 6 1 354 343 321 324 313 295 287 297 296 289 292 298 299 306 303 307 305 307 293 264 253 262 260 247 227 219 221 225 226 232 239 245 250 260 268 268 261
258 261 330 309 343 40 333 340 327 324 331 276 274 282 280 300 303 301 297 292 289 295 301 301 304 305 286 255 257 256 256 235 229 231 225 229 238 241 250 259 268 269 265 259
255 268 294 292 166 129 229 319 292 284 276 280 257 258 277 309 293 292 293 298 308 311 309 301 298 294 297 273 255 254 257 244 231 228 227 230 233 243 257 265 262 254 255 258
240 273 134 186 248 220 325 334 319 300 189 230 197 210 276 251 261 289 314 329 345 335 326 311 302 297 290 285 256 247 247 242 230 227 232 232 239 245 255 255 248 247 251 251
329 352 173 111 336 345 58 44 344 331 349 238 241 269 264 295 325 50 334 328 329 330 327 314 302 292 290 287 272 238 235 229 222 225 235 236 244 249 251 247 247 246 246 238
190 335 23 62 244 240 235 175 166 261 291 303 304 257 256 90 68 324 312 313 329 330 325 318 302 293 285 278 272 240 231 224 225 227 233 239 247 247 248 243 245 244 241 240
7 257 320 295 3 79 262 222 218 242 270 265 242 283 292 319 309 296 290 314 323 328 321 314 312 304 289 260 258 245 226 225 221 225 230 244 243 248 244 243 241 241 236 238
353 294 244 310 325 297 51 290 13 15 289 276 272 283 262 297 295 328 320 329 321 326 316 309 328 328 295 259 237 235 236 225 225 229 231 237 243 244 247 235 236 237 229 227
76 142 284 352 259 285 347 340 65 129 166 220 300 248 227 271 312 296 308 320 323 321 307 305 332 329 328 254 223 211 206 208 210 219 229 237 243 243 234 228 231 230 220 214
157 199 277 261 293 265 170 200 171 133 260 243 257 276 313 185 256 296 316 328 335 322 311 290 331 331 326 291 208 209 212 214 219 228 231 237 235 229 220 220 228 220 212 202
179 304 317 332 357 358 211 222 212 220 142 226 240 265 357 268 268 243 288 341 339 330 337 27 317 323 323 307 282 250 238 231 231 226 220 219 214 213 220 223 212 202 198 196
169 195 191 220 250 243 283 278 274 245 235 250 242 277 288 303 290 255 275 331 348 325 8 5 306 300 306 327 301 266 240 237 228 209 203 209 209 212 204 195 193 199 203 186
157 228 220 246 259 272 274 278 272 259 255 241 275 234 255 261 268 280 273 315 331 316 334 299 303 324 351 351 317 270 232 213 197 192 191 198 194 186 184 191 195 183 174 177
204 257 254 286 271 263 283 282 268 259 264 279 269 274 227 288 304 307 296 310 306 300 296 309 328 0 357 2 342 289 207 189 189 195 196 189 183 180 181 183 176 168 165 168
188 213 272 270 330 307 284 262 142 330 291 265 267 244 269 278 289 306 305 299 298 298 307 324 337 351 355 355 344 292 220 206 190 190 186 174 172 167 168 172 168 167 174 172
223 185 219 288 14 263 253 161 233 237 272 251 290 270 279 285 296 301 297 278 293 319 325 331 340 344 357 355 7 122 222 247 193 178 174 163 162 166 163 162 163 165 166 172
189 135 248 260 204 285 292 192 175 182 284 254 254 279 284 292 306 291 306 305 318 315 321 325 333 338 343 349 360 256 249 245 190 173 166 162 168 165 166 161 164 167 170 175
86 84 188 290 248 252 238 170 167 143 271 216 218 258 279 299 292 286 300 314 320 320 315 320 324 328 343 351 338 275 258 219 180 163 168 166 168 166 164 168 174 172 176 179
170 197 227 231 237 275 220 157 181 76 262 194 217 255 263 266 261 287 297 302 314 314 309 313 319 315 334 351 341 277 268 185 167 168 169 162 158 159 165 172 174 174 180 183
193 182 210 220 218 273 156 152 195 217 291 267 281 275 266 275 282 284 290 307 310 306 303 301 308 311 327 352 338 231 229 159 155 159 159 159 157 156 162 165 166 176 184 188
284 180 233 215 229 243 223 235 274 284 278 288 276 289 284 280 281 284 293 305 298 299 299 290 299 309 322 348 311 245 199 190 165 165 163 157 154 161 167 179 178 181 186 186
306 320 250 344 284 333 316 284 281 293 261 281 282 288 293 283 282 287 296 293 293 295 295 297 299 308 319 333 261 226 252 192 170 164 160 159 161 163 169 175 181 181 179 181
270 306 270 259 288 323 315 310 300 295 278 284 296 303 303 287 287 285 287 287 289 290 290 296 303 299 310 321 309 226 168 176 165 164 159 160 160 160 159 164 165 171 177 190
217 232 260 279 291 280 277 292 293 304 302 303 298 296 286 296 300 294 287 285 285 284 287 288 287 286 303 321 250 117 161 166 161 156 155 153 151 155 153 149 147 151 156 168